Regional Weather Roundup
Issued by NWS Jackson, KY

Home | Current Version | Previous Version | Graphics & Text | Print | Product List | Glossary On
Versions: 1 2 3 4 5 6 7 8 9 10 11 12 13 14 15 16 17 18 19 20 21 22 23 24 25 26 27 28 29 30 31 32 33 34 35 36 37 38 39 40 41 42 43 44 45 46 47 48 49 50
000
ASUS43 KJKL 110310
RWRJKL

EAST KENTUCKY HOURLY WEATHER ROUNDUP
NATIONAL WEATHER SERVICE JACKSON KY
1000 PM EST WED FEB 10 2016

NOTE: "FAIR" INDICATES FEW OR NO CLOUDS BELOW 12,000 FEET WITH
NO SIGNIFICANT WEATHER AND/OR OBSTRUCTIONS TO VISIBILITY.

* THESE REPORTS ARE NOT UNDER NWS QUALITY CONTROL AND MAY NOT
  REPORT WEATHER SUCH AS PRECIPITATION AND FOG.

KYZ079-080-083-085-087-088-110-112-115-119-120-110400
...EASTERN KENTUCKY...

CITY           SKY/WX    TMP DP  RH WIND       PRES   REMARKS
JACKSON        PTCLDY    14   5  67 SW3       30.10R
LONDON         PTCLDY    19   8  62 SW3       30.12R
SOMERSET*      PTCLDY    21  10  63 W5        30.17S WCI  15
MONTICELLO*    MOCLDY    23  13  65 W16G23    30.17R WCI  10
WILLIAMSBURG*  PTCLDY    21  10  63 W5        30.14R WCI  15
MIDDLESBORO*   CLOUDY    23   9  54 CALM      30.14R
HARLAN APT*    MOCLDY    16  10  79 CALM      30.10S
HAZARD APT*    CLEAR     16   7  67 SW3       30.12R
BLACK MTN*       N/A      5   3  92 W3          N/A
BIG SANDY*     CLOUDY    18   8  64 W5        30.11R WCI  11
MOREHEAD APT*  PTCLDY    18   5  57 W5        30.13R WCI  11
$$

KYZ035-036-041-042-044-050-067-078-099-110400
...CENTRAL KENTUCKY...

CITY           SKY/WX    TMP DP  RH WIND       PRES   REMARKS
MT STERLING*   CLOUDY    18  10  73 W5        30.14R WCI  11
DANVILLE*      PTCLDY    19  10  68 W3        30.14S
RICHMOND*      PTCLDY    19  10  68 W6        30.13R WCI  11
LEXINGTON      MOCLDY    17   8  67 W7        30.13R WCI   8
FRANKFORT        N/A     19   8  62 W3        30.13R
$$

KYZ091>093-OHZ055-061-077-WVZ005-015-034-035-042-110400
...SOUTHERN OHIO/WEST VIRGINIA...

CITY           SKY/WX    TMP DP  RH WIND       PRES   REMARKS
COVINGTON      PTCLDY    13   4  67 NW5       30.12R WCI   5
COLUMBUS       MOCLDY    14   3  61 W13G22    30.06R WCI   0
DAYTON         PTCLDY    12   3  67 W16       30.09R WCI  -5
WILMINGTON     CLOUDY    13   4  67 W10       30.08R WCI   0
HUNTINGTON     FLURRIES  18   8  65 W6        30.11S WCI  10
CHARLESTON     CLOUDY    18   5  57 W12G20    30.09R WCI   5
PINEVILLE*       N/A     16   5  63 MISG      30.10R
BECKLEY        LGT SNOW  11   4  73 NW12G23   29.96R WCI  -3
$$

VAZ002-007-008-TNZ017-027-036-066-071-110400
...SOUTHWEST VIRGINIA/EAST TENNESSEE...

CITY           SKY/WX    TMP DP  RH WIND       PRES   REMARKS
BRISTOL        MOCLDY    20   6  55 NW5       30.10R WCI  13
KNOXVILLE      CLOUDY    26   9  48 W13       30.16R WCI  15
OAK RIDGE      CLOUDY    27   9  46 CALM      30.17R
CROSSVILLE     FLURRIES  22  16  78 W12       30.11R WCI  10
NASHVILLE      FLURRIES  26  19  74 W3        30.22S
$$

...KEY TO REMARKS...
VSB - VISIBILITY IN MILES
WCI - WIND CHILL INDEX
HX  - HEAT INDEX

$$



USA.gov is the U.S. government's official web portal to all federal, state and local government web resources and services.